Mountain Home Air Force Base, ID

7:55 PM MDT on July 27, 2016 (GMT -0600)
Mountain Home Air Force Base

Weather History for KMUO - December, 2013

Change the Weather History Date:

Wednesday, December 18, 2013

  Actual Average Record
Temperature  
Mean Temperature 20 °F 29 °F  
Max Temperature 22 °F 37 °F 55 °F (1917)
Min Temperature 17 °F 20 °F -10 °F (1924)
Degree Days  
Heating Degree Days 45 36  
Month to date heating degree days 765 621  
Cooling Degree Days 0 0  
Month to date cooling degree days 0 0  
Moisture  
Dew Point 19 °F    
Average Humidity 100    
Maximum Humidity 100    
Minimum Humidity 100    
Precipitation  
Precipitation T in 0.05 in 0.42 in (1913)
Month to date precipitation 0.01 0.98  
Sea Level Pressure  
Sea Level Pressure 30.06 in    
Wind  
Wind Speed 4 mph (WNW)    
Max Wind Speed 12 mph    
Max Gust Speed -    
Visibility 1 miles    
Events Fog    
T = Trace of Precipitation, MM = Missing Value Source: NWS Daily Summary

Daily Weather History Graph

Daily Weather History Graph

Search for Another Location

Airport or City:

Trip Planner

Search our weather history database for the weather conditions in past years. The results will help you decide how hot, cold, wet, or windy it might be!

Date:

Astronomy

Dec. 18, 2013 Rise Set
Actual Time 8:10 AM MST 5:10 PM MST
Civil Twilight 7:37 AM MST 5:42 PM MST
Nautical Twilight 7:01 AM MST 6:18 PM MST
Astronomical Twilight 6:27 AM MST 6:53 PM MST
Moon 6:48 PM MST (12/18) 8:50 AM MST (12/18)
Length of Visible Light 10h 05m
Length of Day
9h 00m
Full, 98% of the Moon is Illuminated
Dec 18
Full
Dec 25
Last Quarter
Jan 1
New
Jan 7
First Quarter
Jan 15
Full

Hourly Weather History & Observations

Time (MST) Temp. Windchill Dew Point Humidity Pressure Visibility Wind Dir Wind Speed Gust Speed Precip Events Conditions
12:12 AM 17.6 °F 12.3 °F 17.6 °F 100% 30.18 in 0.5 mi North 3.5 mph - N/A Fog Light Freezing Fog
12:57 AM 17.6 °F 9.3 °F 17.6 °F 100% 30.26 in 0.5 mi NNW 5.8 mph - N/A Fog Light Freezing Fog
1:56 AM 18.5 °F 13.3 °F 18.5 °F 100% 30.25 in 0.5 mi WNW 3.5 mph - N/A Fog Light Freezing Fog
2:35 AM 17.6 °F 12.3 °F 17.6 °F 100% 30.15 in 0.2 mi NW 3.5 mph - N/A Fog Light Freezing Fog
2:57 AM 18.1 °F - 18.1 °F 100% 30.25 in 0.2 mi NNW 2.3 mph - N/A Fog Light Freezing Fog
3:57 AM 17.6 °F - 17.6 °F 100% 30.24 in 0.2 mi West 2.3 mph - N/A Fog Light Freezing Fog
4:58 AM 17.1 °F - 17.1 °F 100% 30.22 in 0.5 mi Calm Calm - N/A Fog Light Freezing Fog
5:21 AM 17.6 °F 12.3 °F 17.6 °F 100% 30.12 in 0.2 mi NW 3.5 mph - N/A Fog Light Freezing Fog
5:55 AM 17.6 °F 12.3 °F 17.6 °F 100% 30.22 in 0.2 mi NW 3.5 mph - N/A Fog Light Freezing Fog
6:57 AM 17.2 °F - 17.2 °F 100% 30.22 in 0.2 mi WNW 1.2 mph - N/A Fog Light Freezing Fog
7:58 AM 17.6 °F - 17.6 °F 100% 30.21 in 0.2 mi Calm Calm - N/A Fog Light Freezing Fog
8:58 AM 17.6 °F - 17.6 °F 100% 30.21 in 0.2 mi SSW 2.3 mph - N/A Fog Light Freezing Fog
9:58 AM 17.6 °F - 17.6 °F 100% 30.21 in 0.2 mi Calm Calm - N/A Fog Light Freezing Fog
10:58 AM 19.4 °F - 19.4 °F 100% 30.19 in 0.2 mi SSE 2.3 mph - N/A Fog Light Freezing Fog
11:58 AM 19.4 °F - 19.4 °F 100% 30.16 in 0.2 mi ESE 2.3 mph - N/A Fog Light Freezing Fog
12:58 PM 21.2 °F - 21.2 °F 100% 30.11 in 0.2 mi Variable 2.3 mph - N/A Fog Light Freezing Fog
1:57 PM 21.2 °F - 21.2 °F 100% 30.06 in 0.5 mi SW 2.3 mph - N/A Fog Light Freezing Fog
2:21 PM 21.2 °F - 21.2 °F 100% 29.93 in 0.5 mi Calm Calm - N/A Fog Light Freezing Fog
2:58 PM 21.7 °F 17.0 °F 21.7 °F 100% 30.04 in 0.5 mi West 3.5 mph - N/A Fog Light Freezing Fog
3:41 PM 21.2 °F 16.4 °F 21.2 °F 100% 29.89 in 0.5 mi West 3.5 mph - N/A Fog Light Freezing Fog
3:58 PM 22.1 °F 17.4 °F 22.1 °F 100% 30.01 in 0.5 mi West 3.5 mph - N/A   Mist
4:10 PM 21.2 °F 16.4 °F 21.2 °F 100% 29.89 in 0.8 mi West 3.5 mph - N/A   Mist
4:58 PM 21.2 °F 14.9 °F 21.2 °F 100% 29.99 in 0.8 mi West 4.6 mph - N/A   Overcast
5:57 PM 19.4 °F 11.5 °F 19.4 °F 100% 29.96 in 1.0 mi West 5.8 mph - N/A   Overcast
6:34 PM 19.4 °F 12.8 °F 19.4 °F 100% 29.85 in 1.0 mi WNW 4.6 mph - N/A   Overcast
6:58 PM 20.5 °F 12.8 °F 20.5 °F 100% 29.95 in 1.5 mi West 5.8 mph - N/A   Overcast
7:57 PM 20.3 °F 12.5 °F 20.3 °F 100% 29.96 in 2.0 mi West 5.8 mph - N/A   Overcast
8:55 PM 21.2 °F 9.5 °F 21.2 °F 100% 29.95 in 2.5 mi WNW 11.5 mph - 0.00 in   Overcast
9:13 PM 19.4 °F 8.6 °F 19.4 °F 100% 29.84 in 3.0 mi WNW 9.2 mph - N/A   Overcast
9:57 PM 19.9 °F 9.3 °F 19.9 °F 100% 29.95 in 2.5 mi West 9.2 mph - N/A   Overcast
10:25 PM 19.4 °F 9.5 °F 19.4 °F 100% 29.83 in 2.0 mi West 8.1 mph - N/A   Overcast
10:57 PM 20.1 °F 10.3 °F 20.1 °F 100% 29.92 in 2.0 mi West 8.1 mph - N/A   Overcast
11:57 PM 20.1 °F 13.6 °F 20.1 °F 100% 29.92 in 2.5 mi WSW 4.6 mph - N/A   Overcast